When you browse on this site, cookies collect data to enhance your experience and personalize the content and advertising you see.
Visit our Privacy Policy to learn more. By continuing to use the site, you agree to this use of cookies and data.
  • In Czech Republic
  • List of Countries
  • For 7 days
  • Water Temperature
  • Weather Map
  • Weather Widgets
  • user-avatar
    Login

    Hourly Weather Trujillo

    Today, 21 February, Friday

    Time Temperature Precipitation Wind Pressure Humidity
    00:00 +19°C° 0 mm 1 mps 646 mmHg 89%
    01:00 +18°C° 0 mm 1 mps 646 mmHg 89%
    08:00 +21°C° 0 mm 1 mps 649 mmHg 79%
    09:00 +23°C° 0 mm 1 mps 649 mmHg 73%
    10:00 +25°C° 0 mm 1 mps 650 mmHg 67%
    11:00 +25°C° 0.3 mm 1 mps 650 mmHg 67%
    12:00 +25°C° 0.3 mm 1 mps 649 mmHg 67%
    13:00 +26°C° 0.3 mm 1 mps 648 mmHg 67%
    14:00 +25°C° 0.8 mm 1 mps 647 mmHg 72%
    15:00 +24°C° 0.8 mm 1 mps 647 mmHg 77%
    16:00 +23°C° 0.8 mm 1 mps 646 mmHg 82%
    17:00 +22°C° 0.3 mm 1 mps 646 mmHg 85%
    18:00 +19°C° 0.3 mm 0 mps 646 mmHg 88%
    19:00 +18°C° 0.3 mm 0 mps 646 mmHg 91%
    20:00 +20°C° 0 mm 1 mps 646 mmHg 91%
    21:00 +19°C° 0 mm 1 mps 647 mmHg 90%
    22:00 +19°C° 0 mm 1 mps 647 mmHg 89%
    23:00 +19°C° 0 mm 1 mps 647 mmHg 89%

    Tomorrow, 22 February, Saturday

    Time Temperature Precipitation Wind Pressure Humidity
    00:00 +19°C° 0 mm 1 mps 646 mmHg 89%
    01:00 +18°C° 0 mm 1 mps 646 mmHg 88%
    02:00 +18°C° 0.1 mm 1 mps 646 mmHg 88%
    03:00 +18°C° 0.1 mm 1 mps 646 mmHg 88%
    04:00 +18°C° 0.1 mm 1 mps 646 mmHg 88%
    05:00 +19°C° 0.1 mm 1 mps 647 mmHg 87%
    06:00 +17°C° 0.1 mm 0 mps 647 mmHg 86%
    07:00 +18°C° 0.1 mm 0 mps 648 mmHg 84%
    08:00 +21°C° 0.1 mm 1 mps 649 mmHg 79%
    09:00 +23°C° 0.1 mm 1 mps 650 mmHg 73%
    10:00 +25°C° 0.1 mm 1 mps 650 mmHg 68%
    11:00 +25°C° 0.8 mm 1 mps 649 mmHg 73%
    12:00 +24°C° 0.8 mm 1 mps 648 mmHg 79%
    13:00 +23°C° 0.8 mm 1 mps 647 mmHg 84%
    14:00 +23°C° 1 mm 1 mps 647 mmHg 84%
    15:00 +23°C° 1 mm 1 mps 646 mmHg 83%
    16:00 +23°C° 1 mm 1 mps 646 mmHg 83%
    17:00 +22°C° 0.3 mm 1 mps 646 mmHg 86%
    18:00 +19°C° 0.3 mm 0 mps 646 mmHg 90%
    19:00 +18°C° 0.3 mm 0 mps 646 mmHg 93%
    20:00 +18°C° 0.1 mm 0 mps 646 mmHg 93%
    21:00 +18°C° 0.1 mm 0 mps 647 mmHg 92%
    22:00 +17°C° 0.1 mm 0 mps 647 mmHg 92%
    23:00 +17°C° 0.1 mm 0 mps 647 mmHg 92%

    Day after tomorrow, 23 February, Sunday

    Time Temperature Precipitation Wind Pressure Humidity
    00:00 +17°C° 0.1 mm 0 mps 647 mmHg 92%
    01:00 +17°C° 0.1 mm 0 mps 647 mmHg 92%
    02:00 +17°C° 0.1 mm 0 mps 646 mmHg 92%
    03:00 +17°C° 0.1 mm 0 mps 646 mmHg 92%
    04:00 +17°C° 0.1 mm 0 mps 646 mmHg 92%
    05:00 +17°C° 0.1 mm 0 mps 647 mmHg 92%
    06:00 +17°C° 0.1 mm 0 mps 647 mmHg 92%
    07:00 +18°C° 0.1 mm 0 mps 648 mmHg 91%
    08:00 +19°C° 0.2 mm 0 mps 648 mmHg 88%
    09:00 +22°C° 0.2 mm 1 mps 649 mmHg 85%
    10:00 +23°C° 0.2 mm 1 mps 649 mmHg 82%
    11:00 +23°C° 0.8 mm 1 mps 649 mmHg 83%
    12:00 +23°C° 0.8 mm 1 mps 648 mmHg 85%
    13:00 +23°C° 0.8 mm 1 mps 647 mmHg 86%
    14:00 +22°C° 0.5 mm 1 mps 646 mmHg 87%
    15:00 +22°C° 0.5 mm 1 mps 646 mmHg 88%
    16:00 +20°C° 0.5 mm 0 mps 645 mmHg 88%
    17:00 +19°C° 0.3 mm 0 mps 646 mmHg 90%
    18:00 +19°C° 0.3 mm 0 mps 646 mmHg 91%
    19:00 +18°C° 0.3 mm 0 mps 646 mmHg 92%
    20:00 +17°C° 0.1 mm 0 mps 646 mmHg 92%
    21:00 +17°C° 0.1 mm 0 mps 647 mmHg 92%
    22:00 +17°C° 0.1 mm 0 mps 647 mmHg 92%
    23:00 +17°C° 0.1 mm 0 mps 647 mmHg 92%

    24 February, Monday

    Time Temperature Precipitation Wind Pressure Humidity
    00:00 +17°C° 0.1 mm 0 mps 646 mmHg 92%
    01:00 +17°C° 0.1 mm 0 mps 646 mmHg 91%
    02:00 +17°C° 0 mm 0 mps 646 mmHg 91%
    03:00 +16°C° 0 mm 0 mps 646 mmHg 91%
    04:00 +18°C° 0 mm 1 mps 646 mmHg 90%
    05:00 +17°C° 0 mm 0 mps 646 mmHg 89%
    06:00 +17°C° 0 mm 0 mps 647 mmHg 87%
    07:00 +18°C° 0 mm 0 mps 648 mmHg 86%
    08:00 +19°C° 0.1 mm 0 mps 648 mmHg 81%
    09:00 +22°C° 0.1 mm 1 mps 649 mmHg 77%
    10:00 +24°C° 0.1 mm 1 mps 650 mmHg 72%
    11:00 +24°C° 0.3 mm 1 mps 649 mmHg 74%
    12:00 +24°C° 0.3 mm 1 mps 648 mmHg 76%
    13:00 +24°C° 0.3 mm 1 mps 647 mmHg 78%
    14:00 +24°C° 0.4 mm 1 mps 647 mmHg 78%
    15:00 +23°C° 0.4 mm 1 mps 646 mmHg 79%
    16:00 +23°C° 0.4 mm 1 mps 646 mmHg 79%
    17:00 +20°C° 0.2 mm 0 mps 646 mmHg 83%
    18:00 +19°C° 0.2 mm 0 mps 646 mmHg 87%
    19:00 +18°C° 0.2 mm 0 mps 646 mmHg 92%
    20:00 +18°C° 0.1 mm 0 mps 646 mmHg 91%
    21:00 +18°C° 0.1 mm 0 mps 647 mmHg 91%
    22:00 +19°C° 0.1 mm 1 mps 647 mmHg 91%
    23:00 +19°C° 0 mm 1 mps 647 mmHg 90%

    25 February, Tuesday

    Time Temperature Precipitation Wind Pressure Humidity
    00:00 +19°C° 0 mm 1 mps 647 mmHg 90%
    01:00 +18°C° 0 mm 1 mps 646 mmHg 89%
    02:00 +18°C° 0 mm 1 mps 646 mmHg 89%
    03:00 +18°C° 0 mm 1 mps 646 mmHg 89%
    04:00 +18°C° 0 mm 1 mps 646 mmHg 88%
    05:00 +19°C° 0 mm 1 mps 646 mmHg 87%
    06:00 +19°C° 0 mm 1 mps 647 mmHg 86%
    07:00 +20°C° 0 mm 1 mps 648 mmHg 85%
    08:00 +21°C° 0.1 mm 1 mps 648 mmHg 79%
    09:00 +23°C° 0.1 mm 1 mps 649 mmHg 73%
    10:00 +25°C° 0.1 mm 1 mps 650 mmHg 67%
    11:00 +25°C° 0.2 mm 1 mps 649 mmHg 69%
    12:00 +25°C° 0.2 mm 1 mps 648 mmHg 71%
    13:00 +25°C° 0.2 mm 1 mps 648 mmHg 72%
    14:00 +25°C° 0.3 mm 1 mps 647 mmHg 74%
    15:00 +25°C° 0.3 mm 1 mps 646 mmHg 75%
    16:00 +25°C° 0.3 mm 1 mps 646 mmHg 76%
    17:00 +23°C° 0.2 mm 1 mps 646 mmHg 80%
    18:00 +20°C° 0.2 mm 0 mps 646 mmHg 85%
    19:00 +19°C° 0.2 mm 0 mps 646 mmHg 90%
    20:00 +18°C° 0.1 mm 0 mps 646 mmHg 89%
    21:00 +18°C° 0.1 mm 0 mps 646 mmHg 89%
    22:00 +20°C° 0.1 mm 1 mps 647 mmHg 88%
    23:00 +20°C° 0.1 mm 1 mps 647 mmHg 89%

    26 February, Wednesday

    Time Temperature Precipitation Wind Pressure Humidity
    00:00 +20°C° 0.1 mm 1 mps 646 mmHg 89%
    01:00 +20°C° 0.1 mm 1 mps 646 mmHg 89%
    02:00 +19°C° 0.1 mm 1 mps 646 mmHg 89%
    03:00 +19°C° 0.1 mm 1 mps 646 mmHg 89%
    04:00 +19°C° 0.1 mm 1 mps 646 mmHg 89%
    05:00 +19°C° 0.1 mm 1 mps 646 mmHg 88%
    06:00 +20°C° 0.1 mm 1 mps 647 mmHg 86%
    07:00 +18°C° 0.1 mm 0 mps 648 mmHg 85%
    08:00 +22°C° 0.1 mm 1 mps 649 mmHg 80%
    09:00 +23°C° 0.1 mm 1 mps 649 mmHg 76%
    10:00 +25°C° 0.1 mm 1 mps 650 mmHg 72%
    11:00 +25°C° 0.5 mm 1 mps 649 mmHg 74%
    12:00 +24°C° 0.5 mm 1 mps 648 mmHg 76%
    13:00 +24°C° 0.5 mm 1 mps 647 mmHg 79%
    14:00 +24°C° 0.6 mm 1 mps 647 mmHg 79%
    15:00 +24°C° 0.6 mm 1 mps 646 mmHg 79%
    16:00 +24°C° 0.6 mm 1 mps 646 mmHg 80%
    17:00 +23°C° 0.2 mm 1 mps 646 mmHg 83%
    18:00 +20°C° 0.2 mm 0 mps 646 mmHg 86%
    19:00 +19°C° 0.2 mm 0 mps 646 mmHg 89%
    20:00 +18°C° 0 mm 0 mps 646 mmHg 89%
    21:00 +18°C° 0 mm 0 mps 646 mmHg 88%
    22:00 +20°C° 0 mm 1 mps 647 mmHg 88%
    23:00 +20°C° 0 mm 1 mps 646 mmHg 88%
    Show more